[[{"header":{"parameterUnit":"m.s-1","parameterCategory":1,"la1":30.2992,"la2":30.254,"lo1":-89.0895,"lo2":-89.0443,"dy":0.0025,"dx":0.0025,"nx":19,"ny":19,"refTime":"2026-04-12T03:00:00:Z","depth":0,"parameterNumber":2,"parameterNumberName":"U-component_of_WINDS"},"data":[0,0,0,-4.5064,-4.5067,-4.5236,-4.5237,-4.5453,-4.5455,0,0,0,0,0,0,0,0,0,0,0,-4.5014,-4.5015,-4.5063,-4.5068,-4.5236,-4.5237,-4.5453,-4.5455,0,0,0,0,0,0,0,0,0,0,0,-4.5013,-4.5015,-4.5017,-4.5068,-4.5236,-4.5237,-4.5452,-4.5325,0,0,0,0,0,0,0,0,0,0,-4.5161,-4.5115,-4.5015,-4.5017,-4.5069,-4.5236,-4.5237,-4.5318,-4.5333,-4.5377,0,-4.5416,0,-4.5439,-4.5469,-4.547,0,0,0,-4.5067,-4.5103,-4.5149,-4.5017,-4.5071,-4.5236,-4.516,-4.5326,-4.5342,-4.5395,-4.5419,-4.5427,-4.5443,-4.5471,-4.5472,-4.5729,-4.573,0,0,-4.5058,-4.5044,-4.5138,-4.5159,-4.5134,-4.5155,-4.5165,-4.5336,-4.5361,-4.542,-4.5432,-4.5446,-4.5472,-4.5474,-4.5728,-4.5729,0,0,0,-4.5031,-4.5038,-4.5079,-4.515,-4.5181,-4.516,-4.5172,-4.5353,-4.5368,-4.5435,-4.5449,-4.5474,-4.5476,-4.5726,-4.5728,-4.5773,0,0,0,-4.5026,-4.5022,-4.5075,-4.5068,-4.5178,-4.5269,-4.5185,-4.5356,-4.5376,-4.5448,-4.5474,-4.5478,-4.5725,-4.5727,-4.5769,-4.5795,0,0,0,-4.5003,-4.5019,-4.5044,-4.5067,-4.5139,-4.5267,-4.5291,-4.5361,-4.5385,-4.547,-4.5479,-4.5724,-4.5727,-4.5765,-4.5789,-4.5857,0,0,0,-4.4974,-4.5082,-4.5045,-4.5171,-4.5138,-4.5295,-4.529,-4.5408,-4.5487,-4.5475,-4.5725,-4.5728,-4.5764,-4.5786,-4.5853,-4.5908,-4.5931,0,0,-4.5102,-4.5097,-4.5172,-4.5144,-4.5304,-4.527,-4.5437,-4.5522,-4.5543,-4.5666,-4.5672,-4.577,-4.5789,-4.5856,-4.6072,-4.609,0,0,0,-4.5208,-4.5262,-4.5307,-4.5383,-4.5452,-4.5513,-4.5575,-4.5607,-4.5712,-4.5604,-4.5816,-4.5827,-4.5867,-4.5894,-4.5909,-4.5943,-4.5741,-4.5741,-4.5741,-4.5365,-4.5389,-4.5515,-4.5558,-4.5632,-4.5696,-4.5758,-4.5812,-4.5812,-4.5863,-4.5897,-4.6025,-4.6057,-4.6068,-4.6104,-4.5932,-4.5932,-4.5933,-4.5933,-4.5552,-4.563,-4.5632,-4.5754,-4.5778,-4.5881,-4.5949,-4.5947,-4.6046,-4.6001,-4.6037,-4.5982,-4.6087,-4.6119,-4.5936,-4.5936,-4.5935,-4.5935,-4.5935,-4.5654,-4.5695,-4.5735,-4.5847,-4.5932,-4.5974,-4.6069,-4.6088,-4.6107,-4.6143,-4.6181,-4.618,-4.6179,-4.6161,-4.6162,-4.6162,-4.6162,-4.6163,-4.6163,-4.5741,-4.5785,-4.5863,-4.5948,-4.6,-4.607,-4.614,-4.6191,-4.6252,-4.6259,-4.6259,-4.6253,-4.6096,-4.6053,-4.617,-4.6169,-4.6168,-4.6167,-4.6167,-4.5913,-4.5879,-4.5999,-4.6051,-4.6153,-4.6236,-4.6262,-4.6365,-4.6411,-4.6458,-4.6447,-4.6329,-4.6323,-4.6311,-4.6275,-4.6443,-4.6443,-4.6443,-4.6443,-4.5996,-4.5997,-4.6125,-4.6207,-4.629,-4.6327,-4.6462,-4.6518,-4.657,-4.66,-4.658,-4.6537,-4.6524,-4.6526,-4.651,-4.6476,-4.6692,-4.6692,-4.6692,-4.6101,-4.6112,-4.6222,-4.6274,-4.6357,-4.6428,-4.6555,-4.6649,-4.6702,-4.6702,-4.6623,-4.6613,-4.6543,-4.652,-4.6511,-4.6485,-4.6425,0,0]},{"header":{"parameterUnit":"m.s-1","parameterCategory":1,"la1":30.2992,"la2":30.254,"lo1":-89.0895,"lo2":-89.0443,"dy":0.0025,"dx":0.0025,"nx":19,"ny":19,"refTime":"2026-04-12T03:00:00:Z","depth":0,"parameterNumber":3,"parameterNumberName":"V-component_of_WINDS"},"data":[0,0,0,3.4797,3.4799,3.4888,3.4888,3.5009,3.501,0,0,0,0,0,0,0,0,0,0,0,3.4775,3.4776,3.4797,3.4799,3.4888,3.4888,3.5009,3.501,0,0,0,0,0,0,0,0,0,0,0,3.4775,3.4776,3.4777,3.4799,3.4888,3.4888,3.5008,3.4939,0,0,0,0,0,0,0,0,0,0,3.4851,3.4836,3.4776,3.4777,3.48,3.4888,3.4888,3.4935,3.4943,3.4972,0,3.4999,0,3.5007,3.5019,3.5019,0,0,0,3.4795,3.4829,3.4849,3.4777,3.4801,3.4887,3.4847,3.4939,3.4948,3.4982,3.5001,3.5005,3.5009,3.5019,3.502,3.5203,3.5204,0,0,3.479,3.4793,3.4843,3.4855,3.4843,3.4844,3.4849,3.4945,3.4965,3.5001,3.5008,3.5011,3.502,3.5021,3.5202,3.5204,0,0,0,3.4779,3.479,3.4807,3.485,3.4866,3.4846,3.4853,3.496,3.4966,3.5009,3.5012,3.5021,3.5023,3.5201,3.5203,3.5259,0,0,0,3.4776,3.4783,3.4806,3.4808,3.4864,3.4914,3.4867,3.4959,3.497,3.5012,3.5021,3.5024,3.52,3.5202,3.5255,3.5285,0,0,0,3.4768,3.4782,3.4797,3.4808,3.4847,3.4913,3.4924,3.4962,3.4972,3.5019,3.5024,3.5199,3.5202,3.5251,3.5279,3.5336,0,0,0,3.476,3.4843,3.4798,3.4893,3.4846,3.4947,3.4923,3.4997,3.5044,3.5022,3.52,3.5203,3.525,3.5275,3.5332,3.5385,3.5407,0,0,3.4867,3.4856,3.4912,3.4874,3.4984,3.4933,3.5051,3.509,3.5091,3.5166,3.517,3.5256,3.5278,3.5335,3.5528,3.5546,0,0,0,3.4947,3.4987,3.5016,3.5062,3.5095,3.5126,3.5147,3.5162,3.5226,3.513,3.5291,3.5304,3.5337,3.5363,3.5378,3.5407,3.5214,3.5214,3.5214,3.5102,3.5101,3.5194,3.5204,3.5249,3.5271,3.5308,3.5332,3.5315,3.5353,3.5376,3.5493,3.5523,3.5534,3.5564,3.5403,3.5403,3.5403,3.5403,3.526,3.5317,3.5297,3.5379,3.5378,3.5446,3.5472,3.5459,3.5523,3.5475,3.5504,3.5453,3.5553,3.558,3.5407,3.5407,3.5406,3.5406,3.5405,3.5362,3.539,3.5408,3.5477,3.553,3.5537,3.5601,3.5596,3.5592,3.5621,3.5645,3.5644,3.5644,3.5633,3.5633,3.5634,3.5634,3.5634,3.5634,3.5462,3.5481,3.5536,3.5581,3.5611,3.5651,3.5676,3.5706,3.5738,3.573,3.573,3.5711,3.5563,3.5527,3.5641,3.564,3.5639,3.5638,3.5638,3.5624,3.5587,3.5672,3.5703,3.5757,3.5811,3.5805,3.5867,3.5891,3.5924,3.5899,3.5791,3.5779,3.5767,3.5737,3.5898,3.5898,3.5898,3.5898,3.5711,3.5705,3.5793,3.5843,3.5892,3.5896,3.5994,3.6016,3.6032,3.6047,3.6023,3.5983,3.5971,3.5966,3.595,3.5922,3.6127,3.6127,3.6127,3.5812,3.5811,3.5895,3.5912,3.5954,3.5991,3.6084,3.6143,3.6153,3.6136,3.606,3.605,3.5985,3.5963,3.5944,3.5919,3.5868,0,0]}]]